Location: Bidart
(43.4376°N, 1.5913°W)
Time: 11:52:00
(UTC+00:00)

Okean O Rocket - Pass Details

Date: 19 May 2025
Orbit: 614 x 636 km, 98.0° (Epoch: 12 June)

Event Time Altitude Azimuth Distance (km) Brightness Sun altitude
Exits shadow 19:57:25 - 141° (SE) 2,397 4.0 -5.3°
Reaches altitude 10° 19:58:27 10° 136° (SE) 2,000 3.5 -5.5°
Maximum altitude 20:02:27 36° 70° (ENE) 988 2.3 -6.0°
Drops below altitude 10° 20:06:26 10° 4° (N) 2,001 4.6 -6.6°
Sets 20:08:44 0° 356° (N) 2,908 5.7 -7.0°
